PHASE 3B (AO-10) (14129 NORAD) Tracking and Keplerian Element Data

This shows tracking and keplerian element data for the satellite.

Feedback or suggestion? Click here.




ElementValue
Catalog14129
NamePHASE 3B (AO-10)
Epoch Orbit26862
Epoch Day324.64021647
Epoch Year2022
RAAN70.5485
Inclination26.6657
Eccentricity0.6029217
Argument of Perigee124.882
Mean Anonmoly307.2533
Mean Motion2.05869403
Decay Rate-1E-07
L11 14129U 83058B 22324.64021647 -.00000010 00000+0 00000+0 0 9994
L22 14129 26.6657 70.5485 6029217 124.8820 307.2533 2.05869403268626



Live tracking and technical data element details for PHASE 3B (AO-10) (NORAD 14129). PHASE 3B (AO-10) can be tracked NOW for your location showing map with azimuth and elevation plus other details from your city location.







IsCatalogInMostPopularTable: catalog: 14129, numindb: 91
Update: records affected: 1



GetName: 14129 PHASE 3B (AO-10)

Hit Count: updated at: Mon, 28 Nov 2022 05:33:44 GMT